NOAA 16 DEB, 41295

Orbit data source: Space-Track

NOAA 16 DEB, 41295 is space debris in SSO originally from a launch on Thu, 21 Sep 2000 UTC launched from the Air Force Western Test Range (AFWTR). Debris objects in space refer to the collection of defunct objects orbiting the Earth. Examples of debris include non-operational satellites, rocket bodies, and fragments generated from explosions, collisions, or faulty payload assembly.

Loading next visibility...
Identifier
41295, 2000-055GX
Orbit
SSO
Country
Flag of USUS
Related business
Manufacturer
Unknown
Mission
Spacecraft
Bus & Motor
Unknown
Mass
Unknown
Launch date (UTC)
2000-09-21 (25 years ago)
Launch vehicle
Unknown
Launch site
Air Force Western Test Range (AFWTR)
Object type
Payload
Rocket body
Debris
Shape & HBR
Unknown shape, 0.1 m
Radar Cross Section
Small (<0.1 m²)

Expand to show TLE details & history
Last TLE update: 23 hours ago

TLE from 23 hours ago
0 NOAA 16 DEB
1 41295U 00055GX  25290.87491634  .00004717  00000-0  22370-2 0  9996
2 41295  98.6907 326.3142 0025215 170.9277 189.2360 14.19834929505538
Epoch: 2025-10-17T20:59Z
TLE epoch observation values (Epoch: 2025-10-17T20:59:52.771Z)
Latitude
-0.00005°
Longitude
-15.26969°
Altitude
846.76 km
Speed
7.42 km/s
True Right ascension
21h 45m 15s
True Declination
0° 00' 00"
Sunlit
Object was in full shadow at epoch
Visualization orbit readout
Latitude
Unknown
Longitude
Unknown
Altitude
Unknown
Speed
Unknown
Apparent Right ascension
Unknown
Apparent Declination
Unknown
Sunlit
N/A
Visualization observer readout
Local Sidereal Time
15:07:19
Azimuth
Unknown
Elevation
Unknown
Doppler factor
Unknown
Orbital elements
Apogee altitude
841.227 km
Perigee altitude
804.911 km
Semi-major axis
7,201.206 km
Eccentricity
0.00252
Inclination
98.6907°
RAAN
326.3142°
Arg. of periapsis
170.9277°
True anomaly
189.18977°
Mean anomaly
189.236°
Eccentric anomaly
189.21287°
Mean motion
3.55169 °/min
Orbital period
101.36 mins
BSTAR
0.002237
Loading maneuver chart data...
Computing Atmospheric mass density...

Documentation

Showing up to 5 results
|